FENGYUN 1C DEB, 30560

Orbit data source: Space-Track

FENGYUN 1C DEB, 30560 is space debris in SSO originally from a launch on Mon, 10 May 1999 UTC launched from the Taiyaun Space Center, China (TSC). Fengyun 1C debris stems from the Chinese weather satellite Fengyun-1C, which was intentionally destroyed by a Chinese anti-satellite missile in 2007. This event dramatically increased the amount of space debris, with thousands of trackable fragments posing hazards to satellites and human spaceflight. The Fengyun 1C debris cloud has become a focal point in discussions about space sustainability and the need for international regulations to prevent the creation of new debris.

Loading next visibility...
Identifier
30560, 1999-025ALA
Orbit
SSO
Country
Flag of CNCN / PRC
Related business
Manufacturer
Unknown
Mission
Spacecraft
Bus & Motor
Unknown
Mass
Unknown
Launch date (UTC)
Icon of a cake. It is the launch day of the satellite!1999-05-10 (27 years ago)
Launch vehicle
Unknown
Launch site
Taiyaun Space Center, China (TSC)
Object type
Payload
Rocket body
Debris
Shape & HBR
Unknown shape, 0.1 m
Radar Cross Section
Small (<0.1 m²)

Expand to show TLE details & history
Last TLE update: 12 hours ago

TLE from 12 hours ago
0 FENGYUN 1C DEB
1 30560U 99025ALA 26129.96567785  .00000327  00000-0  17133-3 0  9992
2 30560  98.6729 125.0537 0115875 146.0058 270.5549 14.17228000994684
Epoch: 2026-05-09T23:10Z
TLE epoch observation values (Epoch: 2026-05-09T23:10:34.566Z)
Latitude
54.40046°
Longitude
-102.60195°
Altitude
843.838 km
Speed
7.436 km/s
True Right ascension
07h 31m 16s
True Declination
54° 14' 22"
Sunlit
Object was in daylight at epoch
Visualization orbit readout
Latitude
Unknown
Longitude
Unknown
Altitude
Unknown
Speed
Unknown
Apparent Right ascension
Unknown
Apparent Declination
Unknown
Sunlit
N/A
Visualization observer readout
Local Sidereal Time
18:59:37
Azimuth
Unknown
Elevation
Unknown
Doppler factor
Unknown
Orbital elements
Apogee altitude
915.449 km
Perigee altitude
748.356 km
Semi-major axis
7,210.04 km
Eccentricity
0.01159
Inclination
98.6729°
RAAN
125.0537°
Arg. of periapsis
146.0058°
True anomaly
269.22707°
Mean anomaly
270.5549°
Eccentric anomaly
269.89099°
Mean motion
3.54517 °/min
Orbital period
101.55 mins
BSTAR
0.00017133
Loading maneuver chart data...
Computing Atmospheric mass density...

Documentation

Showing up to 5 results
|